Showing default

ELEVATION-1, 62677

Orbit data source: Space-Track

ELEVATION-1, 62677 is a UK payload satellite in SSO that was launched on Tue, 14 Jan 2025 UTC via an FALCON 9 launch vehicle from the Air Force Western Test Range (AFWTR). Payload-class satellites include a variety of spacecraft equipped with specific instruments for various scientific and technological missions. These include communications satellites like Starlink; space stations such as the ISS; scientific satellites like the Hubble; Earth observation satellites from companies like Planet Labs, Umbra, and HawkEye 360; GPS; miniature CubeSats for education and research; and military/defense satellites.

Loading next visibility...
Identifier
62677, 2025-009BW
Orbit
SSO
Country
Flag of UKUK
Related business
Manufacturer
XDLINX
Mission
Operational Commercial Communications
Bus & Motor
CUBESAT 6U, Unknown motor
Mass
~10 kg wet, ~10 kg dry
Launch date (UTC)
2025-01-14 (1 year ago)
Launch vehicle
FALCON 9
Launch site
Air Force Western Test Range (AFWTR)
Object type
Payload
Rocket body
Debris
Shape & HBR
Box + 2 Pan, 0.5 m
Radar Cross Section
0.080 m², Medium (>0.1 m² and < 1m²)

Expand to show TLE details & history
Last TLE update: 8 hours ago

TLE from 8 hours ago
0 ELEVATION-1
1 62677U 25009BW  26126.17087079  .00026704  00000-0  67246-3 0  9997
2 62677  97.3837 210.9423 0004938 113.4817 246.6948 15.39873161130352
Epoch: 2026-05-06T04:06Z
TLE epoch observation values (Epoch: 2026-05-06T04:06:03.236Z)
Latitude
-0.00004°
Longitude
-74.60638°
Altitude
450.937 km
Speed
7.641 km/s
True Right ascension
14h 03m 46s
True Declination
0° 00' 00"
Sunlit
Object was in full shadow at epoch
Visualization orbit readout
Latitude
Unknown
Longitude
Unknown
Altitude
Unknown
Speed
Unknown
Apparent Right ascension
Unknown
Apparent Declination
Unknown
Sunlit
N/A
Visualization observer readout
Local Sidereal Time
19:36:06
Azimuth
Unknown
Elevation
Unknown
Doppler factor
Unknown
Orbital elements
Apogee altitude
446.791 km
Perigee altitude
440.054 km
Semi-major axis
6,821.559 km
Eccentricity
0.00049
Inclination
97.3837°
RAAN
210.9423°
Arg. of periapsis
113.4817°
True anomaly
246.64284°
Mean anomaly
246.6948°
Eccentric anomaly
246.66882°
Mean motion
3.85228 °/min
Orbital period
93.45 mins
BSTAR
0.00067246
Loading maneuver chart data...
Computing Atmospheric mass density...
Loading historical data...
Loading historical data...
Loading historical data...
Loading historical data...
Loading historical data...
Loading historical data...
Loading historical data...

Documentation

Showing up to 5 results
|